RH
78 73 68 63 58 48 52 62 60 56 38 34 38 39 37 39 46 44 42 78 82 86 87 81 82 82 67 70 81 81 96 96 96 96 92 86 84 81
91 77 68 69 69 67 65 61 66 68 38 30 34 35 41 33 51 46 43 71 82 86 88 83 86 82 72 64 79 82 96 97 97 98 92 91 88 85
94 96 83 78 71 75 66 61 72 66 41 33 31 37 48 49 44 47 46 44 46 88 89 85 86 84 78 73 74 87 95 99 98 96 96 91 89 87
74 87 98 88 77 71 68 69 77 72 51 43 40 40 49 50 49 52 39 31 33 80 90 88 86 84 80 77 78 86 90 100 99 99 96 93 92 91
76 93 90 91 96 83 69 69 82 76 65 37 39 39 46 48 49 48 49 43 33 80 91 90 87 84 83 82 85 86 93 100 100 100 99 97 97 96
84 80 76 79 88 91 72 67 75 86 69 40 38 41 46 49 58 63 61 54 42 34 54 62 74 85 85 86 88 92 92 99 100 100 100 100 100 99
89 71 76 77 76 75 75 65 76 86 74 43 40 41 46 62 56 51 53 56 58 53 49 50 55 54 59 86 73 88 95 99 100 100 100 100 100 100
100 86 71 76 77 81 85 88 78 78 73 45 41 42 56 60 58 58 45 56 64 51 62 65 59 68 48 51 63 78 96 99 100 100 100 100 100 100
100 87 78 66 80 67 81 89 90 82 89 50 44 43 57 51 63 61 53 61 64 71 69 81 65 77 83 56 92 86 94 100 100 100 100 100 100 100
99 90 82 73 75 77 72 79 71 68 61 46 47 42 58 54 55 57 53 55 62 67 67 66 70 74 84 81 99 99 99 100 100 100 100 100 100 100
87 79 89 88 92 87 79 73 63 76 74 84 78 77 81 82 77 46 51 55 62 67 68 61 87 86 93 94 90 100 100 100 100 100 100 100 100 100
81 81 99 98 99 92 89 67 77 74 52 52 54 68 79 78 98 78 54 54 66 62 68 67 90 94 99 97 97 96 98 100 100 100 99 99 99 98
89 100 100 98 95 90 86 68 69 55 63 50 49 53 55 63 69 70 46 50 54 70 75 67 90 98 93 99 98 99 98 98 99 99 99 99 100 98
100 100 98 97 94 93 88 83 77 72 51 55 60 78 77 86 71 67 69 60 60 72 73 84 77 82 88 97 99 99 99 99 98 98 98 99 99 99
99 99 97 96 94 87 88 83 84 62 68 75 86 98 100 98 88 91 92 90 85 89 94 84 82 87 76 86 98 100 99 100 99 98 99 99 99 98
98 97 98 97 93 90 71 70 64 73 74 80 90 97 92 98 100 98 99 99 99 100 99 97 85 86 89 91 84 100 99 100 100 99 98 99 99 99
91 97 98 88 81 78 78 73 80 74 74 83 91 90 86 86 100 99 100 100 100 100 100 100 99 97 100 99 100 100 100 100 100 100 99 100 100 100
81 89 95 88 79 75 74 73 71 79 80 69 72 72 72 78 96 99 99 97 100 100 100 100 99 99 100 100 99 100 100 100 100 100 100 100 100 100
70 74 82 82 74 70 69 68 68 68 63 67 68 71 73 78 94 100 100 100 100 100 100 100 100 100 100 100 100 99 100 100 100 100 100 100 100 100
77 76 78 74 68 68 67 67 67 69 74 77 78 80 88 91 96 100 100 100 100 100 100 100 100 100 99 100 100 100 100 100 100 100 100 98 99 98
75 78 76 72 68 64 65 68 70 69 80 89 85 95 100 98 98 98 100 100 100 100 100 100 100 98 92 89 100 100 99 98 97 96 96 96 98 98
70 69 73 70 67 72 72 74 77 80 80 86 94 100 100 99 99 96 99 99 98 98 100 100 99 96 97 95 100 100 97 97 97 97 98 98 97 99
87 73 68 68 71 73 77 90 86 92 78 84 94 99 100 99 99 100 100 100 99 100 100 100 99 96 95 90 94 96 96 98 98 98 96 97 97 98
Wind_Speed
9 13 12 10 9 10 10 9 12 11 10 10 9 9 7 6 8 9 11 15 11 10 8 9 10 10 5 2 2 7 6 20 20 16 14 16 16 14
5 8 12 10 10 9 10 9 10 10 10 6 8 7 8 6 8 10 10 13 10 9 9 9 10 10 5 3 1 6 7 18 18 17 14 13 14 13
8 7 9 8 11 9 10 10 8 12 11 7 4 9 7 8 8 10 8 9 10 9 9 10 10 8 7 5 3 5 7 17 18 16 14 13 13 13
12 10 8 8 11 11 9 11 10 13 9 10 8 6 9 9 8 10 8 9 8 13 10 10 10 9 8 6 5 3 4 5 16 14 13 12 12 12
11 8 9 12 10 10 10 10 9 7 11 9 8 7 7 7 8 8 9 8 7 15 9 9 9 9 7 6 6 5 5 3 11 15 14 12 11 12
10 11 12 11 12 12 11 12 10 8 12 10 8 8 8 8 6 6 7 6 7 9 8 5 11 9 7 7 6 5 6 4 10 12 11 13 12 11
10 11 11 11 14 14 9 13 11 10 9 11 10 8 9 7 8 8 8 7 6 7 9 9 8 8 8 9 7 8 6 6 11 13 11 12 11 11
9 11 11 13 14 14 13 13 11 13 12 11 10 10 9 6 6 4 6 6 7 7 7 6 4 3 7 9 12 7 10 9 12 13 11 11 11 11
7 11 10 8 12 14 14 11 11 15 5 8 11 11 8 9 6 5 4 4 4 6 8 6 6 6 3 5 4 10 10 9 12 14 14 12 12 11
9 11 11 11 12 12 14 15 14 13 11 8 8 9 5 9 9 7 7 5 3 4 5 3 3 5 3 4 4 8 9 11 14 15 14 14 12 12
8 9 6 9 13 17 14 16 15 12 5 5 11 11 9 5 1 5 7 7 6 5 5 4 3 3 1 1 4 6 10 13 15 16 15 14 13 14
4 7 5 8 12 18 12 16 14 14 12 10 8 6 8 7 2 6 3 7 4 5 5 6 5 3 2 0 2 2 3 7 14 17 17 17 17 7
3 3 2 7 16 16 11 15 14 13 11 12 10 8 8 7 6 7 7 5 5 5 5 5 4 3 1 3 1 4 2 6 4 6 12 17 14 13
2 1 1 13 13 11 6 12 11 8 9 9 8 5 3 2 4 4 4 5 6 5 3 6 4 6 4 2 3 1 4 4 5 7 7 11 15 11
3 4 14 13 12 12 11 12 7 8 7 7 6 3 0 0 3 3 2 2 1 3 4 5 2 5 5 6 4 2 3 3 4 7 6 5 4 5
3 6 9 7 7 7 8 6 6 6 6 5 5 2 3 2 1 0 1 2 1 1 4 4 4 5 3 3 6 6 4 4 4 4 6 4 5 3
6 5 5 6 9 8 6 6 5 5 4 4 4 4 4 3 1 1 1 1 1 2 1 3 7 9 9 4 4 4 5 4 5 7 4 4 2 3
5 7 5 5 7 8 7 6 4 3 3 6 6 5 4 4 2 1 1 3 1 1 3 2 5 4 2 6 12 6 3 4 4 5 4 4 2 1
5 6 6 5 6 6 5 5 5 4 6 5 5 4 4 3 2 2 1 1 1 1 1 1 3 2 3 2 2 12 4 3 6 4 2 3 3 2
3 4 5 5 4 4 4 4 4 5 4 3 3 3 2 2 2 2 3 2 2 2 2 1 1 3 3 6 6 1 8 6 5 5 4 3 6 10
4 4 5 5 5 4 4 3 3 4 2 2 3 3 1 3 4 3 3 4 4 2 4 4 1 1 6 8 5 3 3 7 4 5 5 5 3 3
4 4 5 5 5 5 4 4 5 4 5 4 4 4 2 4 3 4 3 3 4 3 2 3 2 2 0 2 3 6 4 3 12 18 13 5 4 7
3 4 4 5 5 6 5 5 6 5 5 5 4 3 3 4 3 3 3 3 4 3 3 3 2 2 2 2 6 7 7 5 3 3 4 9 9 9
Wind_Direction
271 245 227 220 227 235 232 234 250 238 217 211 233 198 235 212 209 216 228 174 195 211 208 212 206 206 222 111 327 354 276 170 176 181 187 193 189 187
272 258 240 227 224 228 225 226 233 255 242 222 187 219 204 211 167 222 218 158 184 202 199 197 198 207 218 197 191 307 304 168 164 172 188 190 180 178
216 240 254 223 216 206 218 216 210 248 230 225 228 189 211 228 171 213 202 205 179 190 188 189 200 201 212 207 215 257 287 168 168 168 185 170 173 174
227 210 214 254 230 207 210 209 196 236 238 218 177 203 217 201 215 196 213 207 208 169 181 188 191 199 204 205 217 240 281 238 160 170 169 171 170 170
222 198 208 212 232 232 199 193 206 228 257 208 203 208 197 204 197 205 195 208 208 141 173 193 188 199 201 218 216 209 215 263 183 175 174 169 174 174
227 201 208 215 216 219 215 201 186 218 241 203 212 190 206 199 191 189 188 194 198 174 178 185 181 188 201 220 225 234 206 222 186 177 172 168 179 175
219 211 209 213 225 227 221 202 189 197 241 200 204 195 202 183 195 200 180 193 189 189 183 188 195 204 197 219 236 222 213 201 194 176 177 171 178 182
201 209 211 204 217 229 252 289 208 187 220 204 198 203 200 198 196 208 195 188 187 197 198 177 229 233 221 203 191 185 192 192 191 168 166 175 162 171
199 199 207 208 213 214 220 251 209 211 270 245 202 201 183 202 193 182 207 239 198 171 189 163 189 212 235 262 52 187 186 187 184 173 166 161 161 163
192 196 203 219 207 205 201 205 193 198 231 244 226 205 201 198 194 194 188 217 177 158 230 185 190 193 181 246 359 245 191 186 180 165 159 158 161 161
193 194 211 220 228 208 191 191 194 185 191 24 73 71 63 9 333 185 188 207 209 189 195 259 159 154 201 297 291 248 195 184 177 159 155 152 137 120
168 189 214 253 189 189 199 179 167 184 175 177 137 129 187 168 243 269 224 215 230 195 168 203 160 151 170 66 3 5 159 183 173 153 148 139 140 125
175 187 237 201 163 169 174 172 162 164 166 174 180 195 176 180 186 214 236 232 225 261 144 167 161 143 22 127 45 13 80 120 114 115 127 146 149 139
101 48 211 146 146 181 191 119 125 157 170 178 184 191 175 194 217 236 260 248 259 321 103 239 159 174 161 136 121 145 35 64 115 119 113 95 80 83
55 78 118 119 119 100 109 117 160 162 161 184 169 145 239 129 222 213 75 71 111 32 7 245 241 217 210 148 145 138 130 38 77 121 121 123 126 138
79 45 93 101 95 100 128 158 147 153 166 177 167 164 215 192 226 134 136 166 119 43 2 1 280 306 149 131 157 149 130 145 115 95 101 85 79 86
114 74 80 119 128 140 142 144 141 153 160 153 164 206 201 196 192 228 131 144 154 160 70 9 67 76 60 59 84 128 126 108 128 133 100 99 56 82
119 110 107 125 135 150 155 154 159 165 184 192 198 208 226 217 174 196 176 168 153 156 142 169 152 116 80 53 38 121 65 101 121 108 111 104 108 67
139 132 142 126 145 148 155 175 179 184 197 206 220 228 243 225 160 199 227 171 124 131 148 152 210 179 120 96 1 33 89 116 124 108 84 74 128 121
108 143 160 175 167 172 188 191 200 201 195 220 244 244 247 260 217 192 201 177 122 146 148 148 247 298 176 170 144 90 32 136 144 136 120 81 75 87
139 160 185 199 214 215 218 224 225 227 208 257 256 256 223 254 232 217 173 183 149 152 176 171 216 121 117 127 103 99 40 42 79 140 132 121 131 139
162 181 193 207 217 220 212 234 234 229 240 243 257 265 232 244 234 220 185 168 191 174 113 111 146 163 174 168 113 127 125 86 77 85 66 57 169 178
320 301 263 236 231 222 212 206 225 239 250 252 254 252 198 231 213 190 177 160 162 142 133 124 119 81 57 64 120 142 141 138 139 124 69 30 57 53